Regional Weather Roundup
Issued by NWS Upton, NY

Current Version | Previous Version | Graphics & Text | Print | Product List | Glossary Off
Versions: 1 2 3 4 5 6 7 8 9 10 11 12 13 14 15 16 17 18 19 20 21 22 23 24 25 26 27 28 29 30 31 32 33 34 35 36 37 38 39 40 41 42 43 44 45 46 47 48 49 50

300
ASUS41 KOKX 271508
RWROKX

REGIONAL WEATHER ROUNDUP
NATIONAL WEATHER SERVICE NEW YORK NY
1100 AM EDT MON MAR 27 2017

NOTE: "FAIR" INDICATES FEW OR NO CLOUDS BELOW 12,000 FEET WITH NO
SIGNIFICANT WEATHER AND/OR OBSTRUCTIONS TO VISIBILITY.

NYZ071-072-176-178-NJZ106-104-271600-
NEW YORK CITY METRO AREA

CITY           SKY/WX    TMP DP  RH WIND       PRES   REMARKS
Central Park   LGT RAIN  42  41  96 CALM      30.11F FOG
Wall St Helipt LGT RAIN  43  42  97 NE6       30.10F FOG
LaGuardia APRT LGT RAIN  41  39  93 NE9       30.09F FOG
Kennedy INTL   RAIN      46  46 100 CALM      30.10F VSB 1
Breezy Point     N/A     43 N/A N/A NE1         N/A
Newark/Liberty DRIZZLE   42  42 100 NE6       30.08F FOG
Teterboro      LGT RAIN  42  40  92 VRB3      30.08F FOG
$$

NYZ177-179-078>081-271600-
LONG ISLAND NEW YORK

CITY           SKY/WX    TMP DP  RH WIND       PRES   REMARKS
Jones Beach      N/A     43 N/A N/A N2          N/A
Matinecock PT    N/A     37 N/A N/A E9          N/A  WCI  31
Farmingdale    FOG       46  46 100 SW3       30.09F VSB 1/4
MacArthur/ISP  FOG       47  47 100 SW6       30.08S VSB 1/2
Shirley        CLOUDY    49  49 100 S7        30.09F
Westhampton    CLOUDY    48  47  96 S7        30.10S FOG
East Hampton   FOG       47  46  99 S7        30.08F VSB 1/2
Montauk        NOT AVBL
$$

NYZ052-065-067-271600-
HUDSON VALLEY

CITY           SKY/WX    TMP DP  RH WIND       PRES   REMARKS
White Plains   RAIN      40  38  93 E3        30.07F FOG
Newburgh       LGT RAIN  37  37 100 CALM      30.09F FOG
Montgomery     LGT RAIN  39  38  96 CALM      30.07F
Poughkeepsie   CLOUDY    37  36  96 CALM      30.08F FOG
Albany         CLOUDY    38  34  85 S7        30.08F WCI  33
$$

NJZ001-105-106-008-010-013-015-019>022-104-271600-
NEW JERSEY

CITY           SKY/WX    TMP DP  RH WIND       PRES   REMARKS
Newark/Liberty DRIZZLE   42  42 100 NE6       30.08F FOG
Teterboro      LGT RAIN  42  40  92 VRB3      30.08F FOG
Caldwell       CLOUDY    41  38  89 CALM      30.09F
Somerville     LGT RAIN  42  40  92 CALM      30.07F
Linden         CLOUDY    42  42  97 CALM      30.09F FOG
Sussex         CLOUDY    40  39  97 CALM      30.07F
Andover          N/A     40  38  93 CALM      30.07F
Trenton        CLOUDY    44  43  96 CALM      30.08F
Millville      CLOUDY    54  54 100 SW3       30.07F
Atlantic City  LGT RAIN  59  54  83 SW8       30.08S
Wrightstown    LGT RAIN  48  48 100 CALM      30.05F
Toms River     LGT RAIN  53  52  96 SW3       30.08F
Belmar         LGT RAIN  46  46 100 SW3       30.08F FOG
$$

PAZ047>061-062-071-271600-
EASTERN PENNSYLVANIA

CITY           SKY/WX    TMP DP  RH WIND       PRES   REMARKS
Philadelphia   CLOUDY    48  46  93 CALM      30.09F FOG
Allentown      LGT RAIN  42  39  89 E5        30.07F FOG
Scranton       CLOUDY    45  42  89 SW5       30.03S
$$

CTZ002-004>006-009-010-012-RIZ004-006-007-MAZ004-011-015-271600-
SOUTHERN NEW ENGLAND
 IN CT

CITY           SKY/WX    TMP DP  RH WIND       PRES   REMARKS
Bradley INTL   RAIN      35  34  96 N8        30.13S FOG     WCI  29
Hartford       RAIN      36  35  96 N5        30.13F FOG     WCI  32
Danbury        CLOUDY    38  38 100 NE6       30.09F WCI  33
Wtrbury/Oxford LGT RAIN  37  34  87 CALM      30.09F VSB 1
Bridgeport     RAIN      41  39  93 E12       30.09F FOG
Meriden        RAIN      38  35  89 NW5       30.11F FOG     WCI  34
New Haven      RAIN      39  39 100 N6        30.09F VSB 1   WCI  35
Chester        NOT AVBL
Groton         FOG       43  42  97 E9        30.10S VSB 1/4
Wilimantic     HVY RAIN  42  41  96 CALM      30.11F VSB 1

 IN RI

CITY           SKY/WX    TMP DP  RH WIND       PRES   REMARKS
Providence     DRZL/FOG  43  41  93 S7        30.13F VSB 3/4
Block Island   LGT RAIN  44  44 100 S15       30.10F VSB 1/4
Westerly       FOG       45  45 100 E9        30.11F VSB 1/4
 IN MA

CITY           SKY/WX    TMP DP  RH WIND       PRES   REMARKS
Boston         FOG       39  39 100 E7        30.14F VSB 1/2 WCI  34
Worcester      RAIN      33  32  96 N6        30.10F VSB 1/4 WCI  28
Westfield      LGT RAIN  35  34  96 N9        30.13F FOG     WCI  28
Provincetown   CLOUDY    45  40  82 SE17G26   30.14F
Nantucket      CLOUDY    45  41  86 SE16      30.15F
$$

ANZ330-335-338-340-345-350-353-355-271600-
COASTAL MARINE OBSERVATIONS


STATION/POSITION TIME  SKY/WX   TEMP    WIND        PRES    VSBY  WAVE
                                AIR SEA DIR/SP/G                  HT/PER
                 (UTC)          (F)     (DEG/KT/KT) (MB)    (MI)  (FT/S)
NY HARB ENTRANCE 1350            43 42  110/  2/  4 1018.9          4/ 7
20 S FIRE ISLAND 1350            45 41  160/ 12/ 12 1018.5          5/ 7
GREAT SOUTH BAY  NOT AVBL
23 SSW MONTAUK P 1350            46 43              1019.7          4/ 6
15 E BARNEGAT LI 1430               43                N/A           4/ 8
HUDSON CANYON    1350            48 44  170/ 10/ 10 1020.2          5/ 7
KINGS POINT      1436            39 39              1019.0
EXECUTION ROCKS  NOT AVBL
CENTRAL LI SOUND 1400            39      90/ 12/ 14   N/A           2/ 3
EASTERN LI SOUND NOT AVBL
ROBBINS REEF     1436            41      10/  3/  3 1019.3
$$


>>>>>>>>>>>>>>>>>>>>>>>>>>>> KEY <<<<<<<<<<<<<<<<<<<<<<<<<<<
>                                                          <
>     SKY/WX - Sky Condition/Present Weather               <
>     TMP    - Temperature in Fahrenheit                   <
>     DP     - Dew Point in Fahrenheit                     <
>     RH     - Relative Humidity in Percent                <
>     WIND   - Direction (from) and Speed in MPH           <
>     PRES   - Mean Sea Level Pressure (inches of Hg)      <
>     WCI    - Wind Chill Index                            <
>     VSB    - VISIBILITY IN MILES                         <
>     HX     - HEAT INDEX                                  <
>     TC     - TEMPERATURE IN CELSIUS                      <
>     VRB    - VARIABLE WIND DIRECTION                     <
>                                                          <
>>>>>>>>>>>>>>>>>>>>>>>>>>>> KEY <<<<<<<<<<<<<<<<<<<<<<<<<<<




USA.gov is the U.S. government's official web portal to all federal, state and local government web resources and services.